[[{"header":{"parameterUnit":"m.s-1","parameterCategory":2,"la1":30.2991,"la2":30.254,"lo1":-89.0895,"lo2":-89.0444,"dy":0.0017,"dx":0.0017,"nx":28,"ny":28,"refTime":"2025-05-18T03:00:00:Z","depth":"0","parameterNumber":2,"parameterNumberName":"U-component_of_CURRENTS"},"data":[0,0,0,0,0,0,0,0,0,0,0,0,0,0,0,0,0,0,0,0,0,0,0,0,0,0,0,0,0,0,0,0,0,0,0,0,0,0,0,0,0,0,0,0,0,0,0,0,0,0,0,0,0,0,0,0,0,0,0.329,0.3292,0,0.3453,0.3455,0.3456,0.3502,0.3502,0.3502,0.3501,0.357,0.3572,0.3574,0,0,0,0,0,0,0,0,0,0,0,0,0,0.3057,0.306,0.329,0.3292,0.3295,0.3453,0.3455,0.3457,0.3502,0.3502,0.3502,0.3501,0.3569,0.3572,0.3574,0,0,0,0,0,0,0,0,0,0,0,0,0,0.3178,0.3062,0.3289,0.3341,0.3348,0.3453,0.3455,0.3457,0.3503,0.3502,0.3501,0.3501,0.3568,0.3572,0.3575,0.3607,0,0,0.3585,0.3586,0,0,0,0,0,0,0,0,0.3171,0.3185,0.3331,0.3338,0.3345,0.3462,0.3399,0.3505,0.3503,0.3438,0.3501,0.3501,0.3529,0.3536,0.3561,0.361,0.3613,0.3585,0.3587,0.3589,0.359,0,0,0,0,0,0,0,0.3162,0.3179,0.3349,0.3334,0.3343,0.337,0.3386,0.3419,0.3479,0.3444,0.3449,0.3476,0.3531,0.3558,0.3563,0.3614,0.3585,0.3588,0.359,0.3591,0.3701,0.3702,0,0,0,0,0,0,0.3153,0.3171,0.3344,0.3354,0.3261,0.3375,0.3392,0.3421,0.3481,0.3492,0.3476,0.3478,0.3553,0.3559,0.3565,0.3628,0.3589,0.3592,0.3594,0.37,0.3701,0.3702,0,0,0,0,0,0,0.3147,0.3167,0.3337,0.3271,0.3295,0.338,0.3411,0.3424,0.3461,0.3508,0.3515,0.3502,0.3552,0.3561,0.359,0.363,0.3593,0.3596,0.3699,0.37,0.3701,0.374,0,0,0,0,0,0,0.314,0.3163,0.3177,0.327,0.3299,0.342,0.3413,0.3428,0.3481,0.3484,0.3532,0.3537,0.3552,0.3585,0.3593,0.3634,0.3599,0.3698,0.3699,0.3701,0.3738,0.3743,0.3747,0,0,0,0,0,0.3131,0.3168,0.3176,0.3198,0.3316,0.3423,0.344,0.3494,0.3483,0.3518,0.3524,0.3536,0.3602,0.3588,0.3598,0.3641,0.3697,0.3699,0.3701,0.3736,0.3742,0.3747,0,0,0,0,0,0,0.3079,0.3179,0.319,0.3255,0.3337,0.3433,0.3477,0.35,0.3536,0.3532,0.3545,0.3553,0.3602,0.3607,0.3591,0.3675,0.3654,0.3658,0.3677,0.3683,0.3688,0.3688,0.3602,0,0,0,0,0,0.3072,0.3123,0.322,0.3273,0.3315,0.3389,0.3434,0.3477,0.3527,0.3544,0.3566,0.3587,0.362,0.3636,0.3671,0.3709,0.3749,0.3743,0.3747,0.3751,0.3757,0.3861,0.3877,0.3709,0.3709,0.3709,0,0,0.307,0.3129,0.316,0.3265,0.3328,0.341,0.3415,0.3504,0.3547,0.3544,0.359,0.3612,0.3635,0.3685,0.3707,0.3691,0.3818,0.3754,0.3757,0.3761,0.3865,0.3882,0.3897,0.371,0.371,0.371,0,0,0.3115,0.3144,0.3213,0.3285,0.3392,0.3434,0.3459,0.3555,0.357,0.362,0.3627,0.3663,0.3707,0.3738,0.3754,0.3803,0.3846,0.3815,0.3836,0.3938,0.3953,0.3967,0.4035,0.4054,0.381,0.381,0.381,0,0.3107,0.3201,0.3251,0.3343,0.3393,0.3443,0.3522,0.356,0.3642,0.3652,0.3639,0.3723,0.3737,0.3805,0.381,0.3819,0.387,0.3814,0.3946,0.3961,0.3975,0.4041,0.4062,0.3812,0.3812,0.3811,0.3811,0,0.3209,0.329,0.3341,0.3453,0.3505,0.359,0.3644,0.368,0.3682,0.3717,0.3776,0.3799,0.3853,0.3861,0.3843,0.3945,0.3948,0.395,0.3936,0.3995,0.406,0.4081,0.3815,0.3814,0.3814,0.3813,0,0,0.318,0.3374,0.3389,0.3444,0.3565,0.3611,0.3673,0.3738,0.3767,0.3821,0.3866,0.3913,0.3932,0.395,0.3958,0.4016,0.414,0.4013,0.4017,0.4086,0.4355,0.4278,0.4294,0.4175,0.4179,0.4182,0.436,0,0.3243,0.3416,0.3479,0.3595,0.368,0.3717,0.3757,0.381,0.3839,0.3893,0.3925,0.3977,0.3966,0.3987,0.4059,0.4123,0.4199,0.409,0.4282,0.4287,0.4218,0.4317,0.4061,0.4192,0.4381,0.4385,0.4387,0,0.3317,0.3418,0.3557,0.3656,0.3685,0.3733,0.3775,0.3827,0.391,0.3932,0.4014,0.405,0.4146,0.4116,0.4304,0.424,0.4304,0.4344,0.4353,0.4283,0.4251,0.4164,0.4224,0.4083,0.4421,0.4418,0.4415,0,0.3274,0.3449,0.3539,0.3589,0.372,0.3732,0.3765,0.384,0.3865,0.3969,0.402,0.4146,0.4214,0.4332,0.4422,0.4382,0.4618,0.4583,0.4581,0.4576,0.4393,0.4365,0.4342,0.4731,0.4731,0.473,0.473,0,0.3325,0.3389,0.3522,0.3579,0.3618,0.3702,0.3733,0.379,0.3878,0.3938,0.4044,0.4127,0.4274,0.4414,0.4484,0.4612,0.4696,0.4612,0.4633,0.4396,0.4367,0.4263,0.4235,0.4737,0.4735,0.4734,0.4733,0,0.3305,0.3411,0.35,0.3608,0.3621,0.3642,0.3696,0.373,0.3832,0.3926,0.3963,0.4147,0.4323,0.4463,0.4656,0.4688,0.4666,0.4823,0.4515,0.4496,0.4313,0.4297,0.4228,0.4112,0.4847,0.4846,0.4846,0,0.3331,0.3388,0.3483,0.3501,0.3548,0.3582,0.3603,0.3689,0.3744,0.3935,0.399,0.4183,0.4306,0.4566,0.4623,0.4754,0.4645,0.4609,0.4476,0.429,0.429,0.4155,0.4051,0.4254,0.4249,0.4245,0.4241,0,0.3343,0.3362,0.3426,0.3471,0.3489,0.3502,0.3554,0.3579,0.3708,0.3805,0.3954,0.4061,0.4285,0.4304,0.4473,0.4512,0.4346,0.4523,0.442,0.3905,0.3669,0.3568,0.4141,0.4202,0.4206,0.4209,0.4211,0.4213,0.3306,0.3335,0.3399,0.3413,0.3426,0.3413,0.3381,0.3462,0.3519,0.3625,0.3823,0.39,0.4007,0.4177,0.4205,0.4038,0.4102,0.3905,0.393,0.3833,0.3612,0.409,0.4116,0.4119,0.4122,0.4124,0.4127,0,0.3262,0.33,0.3328,0.3325,0.3279,0.3322,0.3332,0.3284,0.3304,0.3443,0.3542,0.3574,0.3586,0.3642,0.3585,0.3469,0.3304,0.3371,0.3097,0.3051,0.3544,0.3403,0.3164,0.3164,0.3164,0.3164,0.3164,0.3165,0.3246,0.3263,0.3273,0.3176,0.3152,0.3043,0.3016,0.2988,0.3028,0.3011,0.3002,0.3095,0.324,0.3271,0.311,0.3024,0.281,0.2658,0.2746,0.3052,0.31,0.3147,0.3003,0.2685,0.2684,0.2032,0.2027,0.2023]},{"header":{"parameterUnit":"m.s-1","parameterCategory":2,"la1":30.2991,"la2":30.254,"lo1":-89.0895,"lo2":-89.0444,"dy":0.0017,"dx":0.0017,"nx":28,"ny":28,"refTime":"2025-05-18T03:00:00:Z","depth":"0","parameterNumber":3,"parameterNumberName":"V-component_of_CURRENTS"},"data":[0,0,0,0,0,0,0,0,0,0,0,0,0,0,0,0,0,0,0,0,0,0,0,0,0,0,0,0,0,0,0,0,0,0,0,0,0,0,0,0,0,0,0,0,0,0,0,0,0,0,0,0,0,0,0,0,0,0,0.0193,0.0192,0,0.0117,0.0115,0.0114,0.0056,0.0055,0.0055,0.0055,-0.0066,-0.0069,-0.0072,0,0,0,0,0,0,0,0,0,0,0,0,0,0.0176,0.0177,0.0193,0.0192,0.0192,0.0117,0.0115,0.0114,0.0056,0.0055,0.0055,0.0055,-0.0065,-0.0069,-0.0072,0,0,0,0,0,0,0,0,0,0,0,0,0,0.0145,0.0177,0.0193,0.0158,0.0154,0.0117,0.0115,0.0113,0.0056,0.0055,0.0055,0.0055,-0.0064,-0.0068,-0.0073,-0.01,0,0,-0.0087,-0.009,0,0,0,0,0,0,0,0,0.0147,0.0145,0.0163,0.016,0.0156,0.01,0.0065,0.0041,0.0056,0.0088,0.0055,0.0055,-0.0011,-0.002,-0.0041,-0.0106,-0.0111,-0.0088,-0.0091,-0.0093,-0.0094,0,0,0,0,0,0,0,0.0149,0.0148,0.0157,0.0163,0.0159,0.0107,0.0103,0.0059,0.0035,0.0085,0.0082,0.0081,-0.0014,-0.0036,-0.0044,-0.0113,-0.0088,-0.0092,-0.0095,-0.0097,-0.0153,-0.0152,0,0,0,0,0,0,0.0176,0.0151,0.016,0.0156,0.0157,0.0109,0.0104,0.0114,0.0036,0.0026,0.0082,0.0079,-0.0028,-0.0039,-0.0049,-0.0026,-0.0093,-0.0097,-0.01,-0.0155,-0.0153,-0.0152,0,0,0,0,0,0,0.0176,0.0178,0.0163,0.0154,0.015,0.0111,0.0121,0.0113,0.0098,0.0035,0.0023,0.0078,-0.0029,-0.0042,-0.0072,-0.0034,-0.0099,-0.0104,-0.0156,-0.0154,-0.0152,-0.0019,0,0,0,0,0,0,0.0176,0.0178,0.0187,0.0157,0.0151,0.0153,0.0122,0.0111,0.01,0.0096,0.0028,0.0016,-0.003,-0.0064,-0.0077,-0.0041,-0.0107,-0.0158,-0.0155,-0.0153,-0.0025,-0.0013,-0.0002,0,0,0,0,0,0.0175,0.0192,0.0188,0.0189,0.0168,0.0154,0.0146,0.0113,0.0101,0.0098,0.0059,0.0019,-0.0057,-0.0068,-0.0082,-0.0047,-0.0159,-0.0156,-0.0153,-0.0031,-0.0016,-0.0003,0,0,0,0,0,0,0.0184,0.0187,0.0182,0.0198,0.0184,0.0146,0.014,0.0123,0.0088,0.0082,0.0025,0.001,0.0003,-0.0045,-0.0055,-0.0056,-0.011,-0.011,-0.0012,0.0001,0.0013,0.0033,-0.0111,0,0,0,0,0,0.0195,0.0209,0.0199,0.021,0.0209,0.0178,0.0167,0.0148,0.0118,0.0102,0.0062,0.0023,0.0002,-0.0016,-0.0051,-0.0062,-0.0092,-0.0046,-0.0034,-0.0024,-0.0017,-0.0015,-0.0002,-0.0142,-0.0142,-0.0142,0,0,0.0202,0.0204,0.0212,0.0213,0.0198,0.022,0.017,0.0161,0.0184,0.0094,0.0103,0.0057,0.0008,0.0007,-0.0,-0.0029,-0.0,-0.0021,-0.0011,-0.001,-0.001,0.0004,0.0016,-0.014,-0.014,-0.014,0,0,0.0224,0.0228,0.0248,0.0251,0.0244,0.024,0.0248,0.0222,0.0212,0.0209,0.0166,0.0146,0.0099,0.0082,0.0067,0.0118,0.0062,0.0106,0.0178,0.0181,0.0193,0.0203,0.0186,0.0194,0.011,0.0111,0.0111,0,0.0232,0.027,0.0249,0.0274,0.0299,0.0265,0.0306,0.0294,0.0263,0.0263,0.0231,0.0192,0.0144,0.0165,0.0179,0.0147,0.0127,0.0133,0.0198,0.0208,0.0216,0.0196,0.0202,0.0118,0.0117,0.0116,0.0115,0,0.0278,0.0312,0.0326,0.0368,0.0383,0.0409,0.0412,0.0411,0.0402,0.0389,0.0391,0.0329,0.0307,0.0296,0.0248,0.0288,0.0248,0.0217,0.0169,0.0238,0.0212,0.0217,0.0127,0.0125,0.0123,0.0121,0,0,0.03,0.0353,0.0361,0.0407,0.0443,0.0466,0.0506,0.0537,0.0569,0.053,0.0571,0.0526,0.0479,0.0459,0.0404,0.0398,0.0431,0.0333,0.033,0.0326,0.0426,0.0385,0.0384,0.0412,0.0414,0.0415,0.0387,0,0.0353,0.0438,0.0448,0.0546,0.0605,0.0601,0.0649,0.0662,0.0663,0.0685,0.0631,0.0643,0.055,0.0545,0.0526,0.0459,0.0448,0.044,0.035,0.0347,0.0311,0.0391,0.0371,0.0343,0.039,0.0391,0.0392,0,0.0409,0.0468,0.0571,0.0663,0.0686,0.0732,0.0811,0.0846,0.0856,0.0848,0.0837,0.0793,0.0779,0.0693,0.062,0.0619,0.0533,0.0472,0.0469,0.0386,0.0315,0.0279,0.0348,0.0183,0.0398,0.0397,0.0397,0,0.0466,0.0561,0.0657,0.0691,0.0777,0.0812,0.0858,0.0889,0.0936,0.0958,0.0993,0.0947,0.0946,0.0845,0.0699,0.0669,0.0614,0.0558,0.0439,0.0434,0.0376,0.0364,0.0283,0.0514,0.0514,0.0514,0.0514,0,0.0542,0.0616,0.0688,0.0742,0.0852,0.0884,0.0979,0.1004,0.106,0.1147,0.1084,0.1142,0.0986,0.0926,0.0769,0.0625,0.0669,0.047,0.0437,0.042,0.0413,0.023,0.0131,0.0513,0.0513,0.0513,0.0514,0,0.0597,0.064,0.0755,0.0852,0.0881,0.0963,0.1062,0.1133,0.1172,0.1291,0.1313,0.1303,0.1232,0.1055,0.09,0.0734,0.0486,0.0517,0.0496,0.0461,0.0187,0.0097,-0.0037,-0.0103,0.0394,0.0393,0.0392,0,0.0638,0.0701,0.0829,0.0893,0.0938,0.1042,0.1115,0.1181,0.1275,0.14,0.148,0.1452,0.1463,0.1207,0.0908,0.0643,0.0467,0.0431,0.0367,0.0189,0.0064,-0.0006,-0.0057,0.0339,0.0337,0.0337,0.0336,0,0.0725,0.076,0.0854,0.0978,0.107,0.1185,0.1302,0.1393,0.1502,0.1612,0.1753,0.1777,0.1541,0.1271,0.0888,0.069,0.0307,0.0402,0.0236,0.0037,-0.0062,-0.0146,0.0321,0.0327,0.0328,0.0329,0.0329,0.0329,0.0783,0.0859,0.0962,0.1081,0.1189,0.1332,0.1434,0.1578,0.1748,0.1943,0.1953,0.2009,0.159,0.1077,0.079,0.0226,0.0243,0.0049,-0.0039,-0.0089,-0.017,0.027,0.0226,0.0226,0.0227,0.0227,0.0227,0,0.087,0.0941,0.1054,0.1199,0.1324,0.1366,0.1564,0.1683,0.1899,0.2062,0.2183,0.1981,0.149,0.0961,0.021,-0.0152,-0.0275,-0.035,-0.0457,-0.048,-0.0072,-0.0093,-0.0228,-0.0228,-0.0228,-0.0228,-0.0227,-0.0227,0.0918,0.1035,0.1086,0.1286,0.1384,0.1555,0.1675,0.1863,0.2007,0.2181,0.2192,0.2188,0.1744,0.0467,-0.0368,-0.0545,-0.0792,-0.0867,-0.0959,-0.07,-0.0669,-0.064,-0.0682,-0.0938,-0.0939,-0.1325,-0.1329,-0.1332]}],[{"header":{"parameterUnit":"m.s-1","parameterCategory":2,"la1":30.2991,"la2":30.254,"lo1":-89.0895,"lo2":-89.0444,"dy":0.0017,"dx":0.0017,"nx":28,"ny":28,"refTime":"2025-05-18T03:00:00:Z","depth":"2","parameterNumber":2,"parameterNumberName":"U-component_of_CURRENTS"},"data":[0,0,0,0,0,0,0,0,0,0,0,0,0,0,0,0,0,0,0,0,0,0,0,0,0,0,0,0,0,0,0,0,0,0,0,0,0,0,0,0,0,0,0,0,0,0,0,0,0,0,0,0,0,0,0,0,0,0,0.2605,0.2605,0,0.285,0.2855,0.2861,0.309,0.309,0.309,0.309,0.324,0.3244,0.3248,0,0,0,0,0,0,0,0,0,0,0,0,0,0.2554,0.2555,0.2605,0.2605,0.2605,0.2849,0.2856,0.2862,0.309,0.309,0.309,0.309,0.3239,0.3243,0.3248,0,0,0,0,0,0,0,0,0,0,0,0,0,0.2694,0.2555,0.2605,0.2726,0.2737,0.2848,0.2856,0.2864,0.309,0.309,0.309,0.309,0.3237,0.3243,0.3249,0.3286,0,0,0.3267,0.327,0,0,0,0,0,0,0,0,0.2686,0.27,0.2708,0.2717,0.2729,0.2912,0.2891,0.2989,0.309,0.2989,0.309,0.309,0.3101,0.3118,0.321,0.3293,0.3299,0.3268,0.3271,0.3274,0.3276,0,0,0,0,0,0,0,0.2676,0.2691,0.2734,0.2707,0.272,0.284,0.2862,0.2915,0.3064,0.2997,0.3007,0.2985,0.3111,0.3204,0.3214,0.3301,0.3268,0.3273,0.3277,0.3279,0.3465,0.3466,0,0,0,0,0,0,0.2571,0.2681,0.2725,0.2738,0.2672,0.2838,0.2864,0.2879,0.3066,0.3086,0.2984,0.2994,0.3194,0.3207,0.322,0.3347,0.3274,0.3279,0.3283,0.3463,0.3465,0.3466,0,0,0,0,0,0,0.257,0.2575,0.2715,0.2688,0.271,0.2834,0.2853,0.2883,0.2994,0.3051,0.3077,0.306,0.3195,0.3211,0.3314,0.335,0.3282,0.3288,0.3462,0.3464,0.3466,0.355,0,0,0,0,0,0,0.2569,0.2575,0.2587,0.2682,0.2707,0.2833,0.285,0.2887,0.2963,0.2981,0.3123,0.3138,0.3196,0.3305,0.332,0.3357,0.3292,0.346,0.3463,0.3465,0.3546,0.3555,0.3563,0,0,0,0,0,0.2567,0.258,0.2588,0.2593,0.271,0.2833,0.2867,0.2972,0.2966,0.3066,0.3137,0.3135,0.3329,0.3313,0.3329,0.3369,0.3459,0.3462,0.3465,0.3542,0.3553,0.3563,0,0,0,0,0,0,0.2576,0.2604,0.2616,0.2639,0.274,0.2861,0.2932,0.2973,0.3117,0.313,0.3177,0.3201,0.3306,0.3313,0.3292,0.3423,0.3382,0.3389,0.3435,0.3446,0.3454,0.3442,0.3297,0,0,0,0,0,0.2564,0.2591,0.2649,0.2682,0.272,0.2824,0.2884,0.2963,0.3061,0.313,0.3203,0.3264,0.3331,0.3368,0.3447,0.3519,0.3534,0.3543,0.3551,0.3558,0.3557,0.3647,0.3665,0.3476,0.3476,0.3476,0,0,0.2562,0.2586,0.2596,0.2685,0.277,0.2886,0.2876,0.2991,0.3083,0.3111,0.3269,0.3315,0.3359,0.3472,0.3511,0.3481,0.3617,0.3562,0.3569,0.3563,0.3652,0.3671,0.3688,0.3478,0.3478,0.3478,0,0,0.2602,0.2612,0.2666,0.2756,0.2859,0.2943,0.2963,0.31,0.3166,0.3297,0.3326,0.3391,0.3505,0.3556,0.358,0.3665,0.3671,0.3671,0.3701,0.379,0.3807,0.3821,0.3854,0.3871,0.3662,0.3662,0.3662,0,0.2607,0.2689,0.2712,0.2814,0.2886,0.2959,0.308,0.3165,0.3319,0.3344,0.3358,0.3509,0.3547,0.3633,0.3669,0.3687,0.3722,0.3665,0.3804,0.3819,0.3833,0.3862,0.388,0.3666,0.3666,0.3665,0.3665,0,0.2699,0.2795,0.2845,0.2992,0.3081,0.3209,0.3286,0.3376,0.3422,0.3482,0.3578,0.3647,0.3719,0.3732,0.3733,0.3829,0.3817,0.382,0.3783,0.3857,0.3883,0.39,0.3673,0.3671,0.367,0.3669,0,0,0.2661,0.2869,0.2898,0.2997,0.3193,0.327,0.3394,0.3516,0.3551,0.3672,0.373,0.3825,0.3822,0.3846,0.3848,0.3903,0.4022,0.3899,0.3902,0.3937,0.4196,0.3998,0.3997,0.4069,0.4072,0.4075,0.4171,0,0.276,0.2979,0.3043,0.3261,0.3399,0.3469,0.3556,0.365,0.3718,0.3794,0.3814,0.389,0.3872,0.3896,0.3961,0.4022,0.4074,0.3993,0.4111,0.4113,0.3935,0.4013,0.3696,0.3738,0.4187,0.419,0.4192,0,0.2845,0.2998,0.3222,0.3398,0.3443,0.3542,0.3663,0.375,0.3832,0.3865,0.3937,0.3966,0.4054,0.4023,0.4174,0.4133,0.4167,0.4197,0.4202,0.3997,0.3947,0.3738,0.3752,0.422,0.4218,0.4216,0.4214,0,0.2861,0.3102,0.3281,0.3364,0.3571,0.3606,0.3679,0.377,0.3799,0.3908,0.3958,0.4065,0.4119,0.4217,0.4268,0.425,0.4418,0.4404,0.425,0.4235,0.3971,0.3926,0.4507,0.4507,0.4506,0.4506,0.4506,0,0.2978,0.3105,0.3283,0.3398,0.3499,0.3613,0.3676,0.3742,0.3825,0.3875,0.3982,0.4041,0.4178,0.4274,0.4322,0.433,0.4473,0.4261,0.4257,0.3985,0.3942,0.436,0.4342,0.451,0.4509,0.4508,0.4508,0,0.3004,0.3148,0.332,0.3505,0.3528,0.3586,0.3648,0.3682,0.3783,0.3865,0.3903,0.4053,0.4142,0.4238,0.4378,0.4362,0.441,0.437,0.4002,0.395,0.4153,0.4138,0.4219,0.4213,0.4208,0.4203,0.42,0,0.3044,0.3163,0.3341,0.3384,0.346,0.353,0.3554,0.3646,0.3695,0.3854,0.39,0.4003,0.402,0.4131,0.4096,0.4109,0.4263,0.3857,0.374,0.414,0.413,0.4123,0.4115,0.3436,0.3427,0.3419,0.3413,0,0.3118,0.3164,0.3297,0.3376,0.3417,0.3447,0.3507,0.3521,0.3638,0.368,0.3761,0.3779,0.3827,0.3658,0.3651,0.3638,0.3826,0.3691,0.4267,0.3529,0.3402,0.3391,0.341,0.3343,0.335,0.3355,0.3359,0.3362,0.3108,0.3165,0.3296,0.3333,0.3366,0.3349,0.3313,0.335,0.3339,0.3333,0.3492,0.3395,0.3429,0.3174,0.311,0.3077,0.3316,0.3251,0.3277,0.3311,0.3174,0.3042,0.2889,0.2893,0.2896,0.2899,0.2902,0,0.3093,0.3161,0.3222,0.3255,0.3219,0.3265,0.326,0.3147,0.3043,0.3047,0.3001,0.271,0.2568,0.2626,0.2434,0.2446,0.2452,0.2396,0.2397,0.2466,0.2527,0.2352,0.1849,0.1846,0.1843,0.184,0,0,0.31,0.3154,0.3169,0.3095,0.3085,0.297,0.2927,0.2729,0.2659,0.2415,0.2308,0.2404,0.2527,0.2135,0.2095,0.1944,0.2195,0.1875,0.2719,0.2787,0.2844,0.3017,0.2823,0,0,0,0,0]},{"header":{"parameterUnit":"m.s-1","parameterCategory":2,"la1":30.2991,"la2":30.254,"lo1":-89.0895,"lo2":-89.0444,"dy":0.0017,"dx":0.0017,"nx":28,"ny":28,"refTime":"2025-05-18T03:00:00:Z","depth":"2","parameterNumber":3,"parameterNumberName":"V-component_of_CURRENTS"},"data":[0,0,0,0,0,0,0,0,0,0,0,0,0,0,0,0,0,0,0,0,0,0,0,0,0,0,0,0,0,0,0,0,0,0,0,0,0,0,0,0,0,0,0,0,0,0,0,0,0,0,0,0,0,0,0,0,0,0,0.0011,0.001,0,-0.0126,-0.0129,-0.0131,-0.0215,-0.0215,-0.0214,-0.0214,-0.0375,-0.038,-0.0384,0,0,0,0,0,0,0,0,0,0,0,0,0,0.0019,0.0019,0.0011,0.001,0.0009,-0.0126,-0.0129,-0.0132,-0.0215,-0.0215,-0.0214,-0.0213,-0.0373,-0.0379,-0.0385,0,0,0,0,0,0,0,0,0,0,0,0,0,-0.0048,0.0019,0.0011,-0.0041,-0.0046,-0.0125,-0.0129,-0.0133,-0.0215,-0.0215,-0.0214,-0.0213,-0.0372,-0.0379,-0.0386,-0.0447,0,0,-0.0408,-0.0411,0,0,0,0,0,0,0,0,-0.0044,-0.0049,-0.0032,-0.0037,-0.0043,-0.0144,-0.0185,-0.0235,-0.0216,-0.0162,-0.0214,-0.0213,-0.0293,-0.0307,-0.035,-0.0454,-0.0461,-0.0408,-0.0413,-0.0416,-0.0418,0,0,0,0,0,0,0,-0.0039,-0.0045,-0.0054,-0.0033,-0.0039,-0.0119,-0.0127,-0.0197,-0.024,-0.0167,-0.0171,-0.0169,-0.0298,-0.0342,-0.0354,-0.0463,-0.0408,-0.0415,-0.0419,-0.0422,-0.0517,-0.0515,0,0,0,0,0,0,0.0008,-0.0039,-0.005,-0.0057,-0.0029,-0.0118,-0.0128,-0.0121,-0.0238,-0.0252,-0.017,-0.0173,-0.0331,-0.0345,-0.036,-0.0329,-0.0416,-0.0422,-0.0427,-0.0519,-0.0517,-0.0515,0,0,0,0,0,0,0.0009,0.0009,-0.0044,-0.0044,-0.0054,-0.0116,-0.011,-0.0124,-0.0157,-0.0238,-0.0255,-0.0185,-0.033,-0.0349,-0.0372,-0.034,-0.0426,-0.0432,-0.0521,-0.0518,-0.0516,-0.0339,0,0,0,0,0,0,0.001,0.001,0.0017,-0.004,-0.0052,-0.0086,-0.011,-0.0127,-0.0152,-0.0158,-0.0257,-0.0272,-0.0331,-0.036,-0.0379,-0.0352,-0.0438,-0.0523,-0.052,-0.0517,-0.0347,-0.033,-0.0316,0,0,0,0,0,0.0011,0.0018,0.0018,0.0017,-0.0035,-0.0085,-0.0102,-0.0151,-0.0153,-0.0177,-0.0201,-0.0269,-0.0352,-0.0364,-0.0387,-0.0361,-0.0525,-0.0521,-0.0517,-0.0354,-0.0334,-0.0317,0,0,0,0,0,0,0.0017,0.001,0.0008,0.0013,-0.0025,-0.0095,-0.0119,-0.0141,-0.0187,-0.0182,-0.0251,-0.0268,-0.0276,-0.0343,-0.0354,-0.0377,-0.0449,-0.045,-0.0318,-0.03,-0.0285,-0.0272,-0.0444,0,0,0,0,0,0.003,0.0038,0.001,0.0011,-0.0001,-0.0055,-0.0082,-0.011,-0.0147,-0.0169,-0.0215,-0.0258,-0.0283,-0.0306,-0.0356,-0.0377,-0.0428,-0.0374,-0.0359,-0.0345,-0.0349,-0.0363,-0.0349,-0.0502,-0.0502,-0.0502,0,0,0.0034,0.0032,0.0036,0.0013,-0.0022,-0.0015,-0.0073,-0.0105,-0.0082,-0.0178,-0.0165,-0.0214,-0.0276,-0.028,-0.0292,-0.0329,-0.0325,-0.034,-0.0328,-0.034,-0.0357,-0.0342,-0.0329,-0.0499,-0.0499,-0.05,0,0,0.0041,0.0045,0.005,0.0033,0.0005,-0.0003,0.0002,-0.0046,-0.0056,-0.0053,-0.0092,-0.0114,-0.017,-0.0199,-0.0219,-0.0157,-0.0242,-0.0172,-0.009,-0.0101,-0.0088,-0.0078,-0.0107,-0.0101,-0.0165,-0.0165,-0.0165,0,0.0047,0.007,0.0037,0.0039,0.0063,0.0024,0.0054,0.0034,-0.0006,0.0002,-0.0022,-0.0068,-0.0128,-0.0114,-0.0083,-0.0124,-0.0146,-0.0148,-0.0079,-0.007,-0.0063,-0.0096,-0.0091,-0.0156,-0.0157,-0.0158,-0.0159,0,0.0065,0.0086,0.0086,0.0116,0.0124,0.0137,0.0143,0.0144,0.0154,0.0141,0.0146,0.0076,0.0044,0.0033,-0.0005,0.0024,-0.0014,-0.0052,-0.012,-0.0036,-0.0077,-0.0075,-0.0143,-0.0146,-0.0149,-0.0151,0,0,0.0093,0.0105,0.011,0.0154,0.0182,0.02,0.025,0.0287,0.0328,0.0288,0.0335,0.0287,0.0232,0.0205,0.0146,0.0135,0.0172,0.0078,0.0073,0.0058,0.0147,0.0075,0.0068,0.016,0.0161,0.0162,0.0103,0,0.0132,0.0182,0.0186,0.0278,0.0326,0.0334,0.0391,0.0413,0.0429,0.0453,0.0391,0.0401,0.0307,0.0302,0.0276,0.0204,0.0182,0.019,0.0057,0.0052,-0.0014,0.007,0.0097,0.0043,0.0104,0.0104,0.0104,0,0.0166,0.0213,0.03,0.0395,0.0417,0.0471,0.0583,0.0619,0.063,0.0628,0.0608,0.0556,0.053,0.0442,0.0347,0.0364,0.0265,0.0198,0.0193,0.0059,-0.0017,-0.0036,0.0042,0.0106,0.0106,0.0106,0.0105,0,0.0234,0.0306,0.0403,0.0432,0.0517,0.0569,0.063,0.0669,0.072,0.0741,0.0773,0.071,0.0693,0.0581,0.0415,0.04,0.0305,0.0258,0.0091,0.0083,0.0041,0.0028,0.0183,0.0183,0.0184,0.0184,0.0184,0,0.03,0.0373,0.0441,0.049,0.0622,0.0651,0.0764,0.0798,0.085,0.0931,0.0864,0.0897,0.0732,0.0646,0.0482,0.0293,0.0346,0.0114,0.0072,0.0103,0.0097,0.0087,0.0076,0.0181,0.0182,0.0182,0.0183,0,0.035,0.0382,0.05,0.0608,0.0645,0.0745,0.0857,0.0928,0.0968,0.1074,0.1094,0.1055,0.0933,0.0735,0.0547,0.038,0.0206,0.0113,0.0147,0.0109,-0.0026,-0.0026,-0.0057,-0.006,-0.0062,-0.0064,-0.0066,0,0.0377,0.0434,0.0582,0.0656,0.0709,0.0831,0.0906,0.098,0.1066,0.1169,0.1234,0.1154,0.1098,0.0782,0.047,0.0169,0.0141,0.0005,-0.0039,-0.0008,-0.0046,-0.0043,-0.004,-0.0017,-0.0018,-0.0019,-0.002,0,0.045,0.0496,0.0601,0.0734,0.0841,0.0963,0.1084,0.1168,0.127,0.1354,0.1444,0.1414,0.1104,0.0801,0.0376,0.0177,0.0058,-0.0028,0.0028,0.0028,0.0022,-0.0014,-0.001,-0.0028,-0.0028,-0.0027,-0.0026,-0.0026,0.051,0.0593,0.0703,0.0834,0.0958,0.1092,0.1196,0.1314,0.1451,0.1579,0.155,0.1498,0.1187,0.0608,0.0282,-0.0062,-0.0058,-0.0154,-0.0147,-0.0139,-0.0136,-0.0147,-0.0229,-0.0229,-0.0229,-0.0229,-0.023,0,0.0584,0.0664,0.0784,0.0945,0.1071,0.1133,0.1314,0.1408,0.1569,0.1626,0.166,0.1337,0.1005,0.0645,0.0124,-0.0179,-0.0175,-0.0262,-0.0174,-0.0165,-0.0157,-0.0151,-0.0249,-0.025,-0.0251,-0.0252,0,0,0.0628,0.0738,0.0784,0.0991,0.1118,0.1301,0.1415,0.1542,0.1615,0.1642,0.1594,0.1494,0.1089,0.0711,0.0308,0.0032,0.0003,-0.0026,0.002,0.018,0.0192,-0.0068,-0.0046,0,0,0,0,0]}],[{"header":{"parameterUnit":"m.s-1","parameterCategory":2,"la1":30.2991,"la2":30.254,"lo1":-89.0895,"lo2":-89.0444,"dy":0.0017,"dx":0.0017,"nx":28,"ny":28,"refTime":"2025-05-18T03:00:00:Z","depth":"4","parameterNumber":2,"parameterNumberName":"U-component_of_CURRENTS"},"data":[0,0,0,0,0,0,0,0,0,0,0,0,0,0,0,0,0,0,0,0,0,0,0,0,0,0,0,0,0,0,0,0,0,0,0,0,0,0,0,0,0,0,0,0,0,0,0,0,0,0,0,0,0,0,0,0,0,0,0.1147,0.1146,0,0.0931,0.0928,0.0924,0.085,0.0852,0.0853,0.0855,0.0996,0.0998,0.1,0,0,0,0,0,0,0,0,0,0,0,0,0,0.1337,0.1334,0.1147,0.1145,0.1144,0.0931,0.0927,0.0924,0.085,0.0852,0.0854,0.0856,0.0995,0.0998,0.1,0,0,0,0,0,0,0,0,0,0,0,0,0,0.1193,0.1334,0.1148,0.1088,0.1081,0.0932,0.0927,0.0923,0.0849,0.0852,0.0854,0.0857,0.0994,0.0998,0.1001,0.097,0,0,0.1011,0.1012,0,0,0,0,0,0,0,0,0.1201,0.1185,0.1099,0.1092,0.1084,0.0928,0.1046,0.0959,0.0849,0.0928,0.0855,0.0858,0.1011,0.1012,0.0948,0.0977,0.0983,0.1011,0.1013,0.1014,0.1015,0,0,0,0,0,0,0,0.1212,0.1193,0.1052,0.1097,0.1088,0.1018,0.1001,0.1026,0.0957,0.0921,0.0917,0.0907,0.1008,0.0944,0.0952,0.0985,0.1011,0.1014,0.1016,0.1017,0.1187,0.1189,0,0,0,0,0,0,0.1262,0.1203,0.1059,0.1047,0.116,0.1014,0.0994,0.0968,0.0949,0.0948,0.0905,0.0904,0.0938,0.0948,0.0958,0.1075,0.1014,0.1017,0.1019,0.1184,0.1187,0.119,0,0,0,0,0,0,0.1266,0.125,0.1068,0.1128,0.1102,0.101,0.098,0.0963,0.0938,0.0934,0.0939,0.0906,0.094,0.0953,0.0971,0.1076,0.1019,0.1022,0.1181,0.1185,0.1189,0.1215,0,0,0,0,0,0,0.1272,0.1252,0.1258,0.1131,0.1101,0.0972,0.0978,0.0957,0.093,0.0928,0.0937,0.0948,0.0943,0.0965,0.0974,0.1079,0.1024,0.1178,0.1183,0.1187,0.121,0.1219,0.1226,0,0,0,0,0,0.1279,0.1257,0.1259,0.1243,0.1108,0.0971,0.0945,0.0884,0.0929,0.088,0.0896,0.095,0.1007,0.0966,0.0977,0.1086,0.1175,0.1181,0.1187,0.1207,0.1217,0.1226,0,0,0,0,0,0,0.1327,0.1245,0.1244,0.1198,0.11,0.0962,0.0934,0.0908,0.0871,0.0913,0.0926,0.0934,0.0995,0.1029,0.0985,0.1154,0.1125,0.1133,0.1138,0.1147,0.1155,0.1288,0.1027,0,0,0,0,0,0.135,0.1322,0.1217,0.118,0.1151,0.106,0.1014,0.0968,0.0918,0.0904,0.0907,0.0963,0.1016,0.1068,0.1077,0.1154,0.1169,0.1252,0.126,0.1266,0.1384,0.1345,0.1359,0.1209,0.1209,0.1209,0,0,0.1361,0.1314,0.13,0.1192,0.1132,0.1046,0.1035,0.0967,0.0947,0.0938,0.0936,0.096,0.1029,0.1086,0.1132,0.1143,0.1315,0.1274,0.1278,0.1396,0.1353,0.1367,0.138,0.1213,0.1212,0.1211,0,0,0.1324,0.1333,0.1279,0.1199,0.1115,0.1065,0.1064,0.095,0.0969,0.0962,0.0972,0.1061,0.1104,0.1172,0.1229,0.1306,0.1321,0.133,0.152,0.1475,0.1487,0.1499,0.1517,0.153,0.1374,0.1374,0.1374,0,0.1354,0.1258,0.1235,0.1142,0.1123,0.1088,0.103,0.1007,0.0918,0.0982,0.0991,0.1138,0.1177,0.1332,0.1385,0.1338,0.1316,0.1462,0.1483,0.1494,0.1505,0.1522,0.1536,0.1376,0.1376,0.1375,0.1375,0,0.1233,0.1173,0.1138,0.1045,0.1024,0.0957,0.0955,0.0983,0.1062,0.1044,0.1208,0.1261,0.1402,0.142,0.1458,0.1599,0.1556,0.1446,0.145,0.1521,0.1535,0.1548,0.1379,0.1378,0.1377,0.1377,0,0,0.1268,0.1093,0.1087,0.1061,0.0988,0.0966,0.1031,0.1071,0.1157,0.1202,0.1341,0.1517,0.1605,0.1688,0.1736,0.177,0.1824,0.1697,0.1693,0.1709,0.1764,0.1657,0.1661,0.1667,0.1671,0.1673,0.1733,0,0.119,0.102,0.0996,0.093,0.0864,0.0949,0.1005,0.1076,0.1176,0.1267,0.1475,0.1571,0.1683,0.1788,0.1862,0.1818,0.1867,0.1824,0.171,0.1712,0.1596,0.1676,0.1683,0.1743,0.1747,0.1749,0.175,0,0.1079,0.0995,0.0892,0.0915,0.0922,0.094,0.1155,0.1179,0.1328,0.1428,0.1644,0.1709,0.1948,0.1927,0.2066,0.2019,0.1974,0.1917,0.1911,0.1847,0.1633,0.1666,0.1775,0.1773,0.1771,0.1769,0.1768,0,0.1073,0.0969,0.0924,0.0893,0.0879,0.1023,0.1112,0.1257,0.1337,0.1533,0.1617,0.1848,0.1993,0.2018,0.2101,0.2044,0.2127,0.1975,0.185,0.1841,0.1902,0.1889,0.2015,0.2015,0.2014,0.2014,0.2014,0,0.0955,0.0931,0.0943,0.0882,0.0972,0.1048,0.1192,0.1311,0.1475,0.1553,0.1725,0.186,0.2006,0.2092,0.2108,0.211,0.2155,0.1969,0.1865,0.1908,0.1897,0.1909,0.1896,0.2016,0.2016,0.2016,0.2015,0,0.0857,0.082,0.0774,0.0848,0.0912,0.1,0.1197,0.1284,0.1462,0.1598,0.1677,0.1879,0.2012,0.2122,0.2137,0.2104,0.2072,0.2021,0.2175,0.2062,0.1811,0.1799,0.1888,0.1885,0.1882,0.188,0.1879,0,0.0767,0.0701,0.074,0.0768,0.0813,0.0961,0.105,0.1254,0.1353,0.1607,0.1668,0.1851,0.1983,0.1992,0.2072,0.2097,0.2037,0.2018,0.1889,0.1918,0.1806,0.1798,0.179,0.1875,0.1874,0.1873,0.1873,0,0.0603,0.0625,0.0588,0.0629,0.074,0.0811,0.1003,0.1071,0.1322,0.1474,0.1641,0.1728,0.1846,0.1921,0.1972,0.1964,0.204,0.199,0.1992,0.1871,0.1901,0.1792,0.1787,0.1864,0.1865,0.1866,0.1867,0,0.0524,0.0489,0.0464,0.052,0.0611,0.0698,0.0798,0.0987,0.1106,0.144,0.1483,0.1681,0.1844,0.1849,0.1899,0.1913,0.1835,0.1732,0.1746,0.1756,0.1685,0.1703,0.1582,0,0,0,0,0,0.0435,0.0377,0.0385,0.0427,0.0514,0.0586,0.0775,0.0897,0.1156,0.1236,0.1379,0.1499,0.1606,0.1677,0.1658,0.1784,0.1814,0.1746,0.1694,0.1817,0.1827,0.1755,0,0,0,0,0,0,0.0359,0.0317,0.0317,0.0347,0.0396,0.0496,0.0615,0.0789,0.0866,0.1128,0.1189,0.1368,0.1477,0.1602,0.1614,0.1638,0.1563,0.1864,0.1859,0.1811,0.182,0.1828,0.1758,0,0,0,0,0]},{"header":{"parameterUnit":"m.s-1","parameterCategory":2,"la1":30.2991,"la2":30.254,"lo1":-89.0895,"lo2":-89.0444,"dy":0.0017,"dx":0.0017,"nx":28,"ny":28,"refTime":"2025-05-18T03:00:00:Z","depth":"4","parameterNumber":3,"parameterNumberName":"V-component_of_CURRENTS"},"data":[0,0,0,0,0,0,0,0,0,0,0,0,0,0,0,0,0,0,0,0,0,0,0,0,0,0,0,0,0,0,0,0,0,0,0,0,0,0,0,0,0,0,0,0,0,0,0,0,0,0,0,0,0,0,0,0,0,0,0.0134,0.0135,0,0.0246,0.0247,0.0249,0.0317,0.0317,0.0317,0.0317,0.0334,0.0334,0.0335,0,0,0,0,0,0,0,0,0,0,0,0,0,0.0047,0.0048,0.0134,0.0135,0.0136,0.0245,0.0247,0.0249,0.0317,0.0317,0.0317,0.0317,0.0334,0.0334,0.0335,0,0,0,0,0,0,0,0,0,0,0,0,0,0.0116,0.0048,0.0134,0.0181,0.0186,0.0245,0.0247,0.025,0.0317,0.0317,0.0317,0.0317,0.0334,0.0334,0.0335,0.0335,0,0,0.0337,0.0337,0,0,0,0,0,0,0,0,0.0112,0.012,0.0173,0.0178,0.0184,0.0265,0.0223,0.0273,0.0317,0.027,0.0317,0.0317,0.03,0.0304,0.033,0.0336,0.0337,0.0337,0.0337,0.0337,0.0337,0,0,0,0,0,0,0,0.0107,0.0116,0.0181,0.0174,0.0181,0.022,0.023,0.0234,0.0283,0.0274,0.0279,0.0287,0.0303,0.0329,0.033,0.0337,0.0337,0.0337,0.0337,0.0338,0.0297,0.0295,0,0,0,0,0,0,0.0085,0.0111,0.0177,0.0184,0.0145,0.0221,0.0232,0.0241,0.0285,0.0292,0.0286,0.0289,0.0328,0.0329,0.0331,0.0328,0.0337,0.0338,0.0338,0.0298,0.0296,0.0295,0,0,0,0,0,0,0.0082,0.0089,0.0173,0.0148,0.0161,0.0221,0.0232,0.0243,0.0284,0.0295,0.0301,0.0316,0.0328,0.033,0.0358,0.0329,0.0338,0.0338,0.03,0.0298,0.0296,0.0326,0,0,0,0,0,0,0.0079,0.0088,0.0095,0.0146,0.0161,0.0224,0.0232,0.0245,0.0286,0.0292,0.0322,0.0324,0.0328,0.0358,0.0359,0.033,0.0339,0.0302,0.0299,0.0296,0.0327,0.0325,0.0324,0,0,0,0,0,0.0076,0.0093,0.0095,0.0103,0.0166,0.0225,0.0238,0.0283,0.0287,0.0318,0.0337,0.0324,0.0339,0.0359,0.036,0.0331,0.0303,0.03,0.0297,0.0328,0.0326,0.0324,0,0,0,0,0,0,0.0067,0.0102,0.0106,0.0133,0.0178,0.0236,0.0266,0.0289,0.0332,0.0333,0.0341,0.0345,0.0345,0.0335,0.0357,0.0304,0.0303,0.03,0.0326,0.0324,0.0323,0.0324,0.0339,0,0,0,0,0,0.0062,0.0079,0.0122,0.0145,0.0165,0.0213,0.0243,0.0274,0.0312,0.0333,0.0361,0.0355,0.033,0.0331,0.0326,0.0322,0.0272,0.0287,0.0286,0.0285,0.0283,0.0171,0.016,0.0284,0.0285,0.0285,0,0,0.0063,0.0084,0.0094,0.0143,0.0178,0.0231,0.0234,0.0285,0.0325,0.0323,0.0391,0.0366,0.0329,0.0322,0.0316,0.0315,0.0227,0.0281,0.0281,0.0279,0.0167,0.0154,0.0144,0.0282,0.0283,0.0283,0,0,0.009,0.0094,0.0127,0.0169,0.0221,0.0247,0.0262,0.0331,0.0356,0.0409,0.0386,0.0356,0.0374,0.0327,0.0298,0.0281,0.0226,0.0259,0.0257,0.0149,0.0138,0.0127,0.0071,0.0055,0.0255,0.0255,0.0255,0,0.0092,0.0145,0.015,0.0205,0.0248,0.0256,0.0321,0.0341,0.0415,0.0412,0.0435,0.0388,0.0367,0.0292,0.0282,0.0277,0.0223,0.0275,0.0148,0.0136,0.0125,0.0069,0.0052,0.0256,0.0256,0.0256,0.0256,0,0.0156,0.0208,0.0235,0.0297,0.0337,0.0394,0.0419,0.0445,0.0463,0.0468,0.0434,0.0406,0.0365,0.0329,0.031,0.0198,0.0189,0.0164,0.0158,0.0114,0.0059,0.004,0.0258,0.0257,0.0257,0.0257,0,0,0.015,0.0259,0.0273,0.0331,0.0398,0.0439,0.0468,0.049,0.048,0.05,0.048,0.0413,0.0369,0.0331,0.0272,0.0175,0.0059,0.0139,0.0132,0.0095,-0.0154,-0.0067,-0.008,0.0003,-0.0001,-0.0004,-0.0152,0,0.0211,0.0338,0.0367,0.048,0.0555,0.0557,0.0577,0.0577,0.0562,0.0538,0.0441,0.0406,0.0373,0.0338,0.0233,0.0096,0.0006,0.0104,-0.0117,-0.0123,-0.0032,-0.01,-0.0016,-0.0167,-0.0171,-0.0174,-0.0177,0,0.0274,0.036,0.0497,0.0582,0.0606,0.0662,0.067,0.0685,0.0603,0.0581,0.0499,0.043,0.0296,0.0276,0.0031,0.0093,-0.0025,-0.0126,-0.0135,-0.0079,-0.0072,-0.0123,-0.0212,-0.0209,-0.0206,-0.0204,-0.0202,0,0.0304,0.0439,0.0555,0.0601,0.0694,0.0731,0.075,0.0705,0.0692,0.0601,0.0569,0.0408,0.0338,0.0149,-0.0014,-0.0019,-0.0275,-0.031,-0.0339,-0.0332,-0.0376,-0.0364,-0.0493,-0.0493,-0.0493,-0.0492,-0.0492,0,0.0369,0.0459,0.0589,0.0667,0.0751,0.0789,0.0819,0.0796,0.0743,0.0704,0.0595,0.0529,0.0295,0.0141,-0.0028,-0.0214,-0.0283,-0.035,-0.038,-0.0356,-0.034,-0.0388,-0.0374,-0.0498,-0.0496,-0.0495,-0.0494,0,0.0399,0.0488,0.0621,0.0748,0.0788,0.0844,0.089,0.0881,0.0836,0.0783,0.0758,0.0592,0.0398,0.02,-0.01,-0.0204,-0.0406,-0.0449,-0.0363,-0.0383,-0.0395,-0.0378,-0.0541,-0.0539,-0.0538,-0.0537,-0.0536,0,0.0426,0.0518,0.0683,0.0749,0.0827,0.0909,0.0942,0.0932,0.0909,0.082,0.0781,0.062,0.0497,0.0157,-0.0056,-0.0342,-0.0373,-0.0466,-0.0483,-0.0395,-0.0408,-0.0393,-0.0378,-0.0534,-0.0534,-0.0533,-0.0533,0,0.0481,0.0548,0.0653,0.0793,0.088,0.0939,0.099,0.0983,0.0941,0.0914,0.0786,0.0627,0.0428,0.0167,-0.0012,-0.0229,-0.0413,-0.0455,-0.0461,-0.0478,-0.0389,-0.04,-0.0386,-0.0529,-0.0529,-0.053,-0.053,0,0.0503,0.0564,0.0699,0.0807,0.0906,0.0948,0.0973,0.0959,0.0936,0.085,0.0811,0.0615,0.0493,0.0227,0.0041,-0.013,-0.0206,-0.0286,-0.0302,-0.0309,-0.0181,-0.0031,-0.0101,0,0,0,0,0,0.0524,0.0589,0.0696,0.0808,0.0899,0.0945,0.0986,0.0988,0.0967,0.0887,0.085,0.0675,0.0408,0.0274,0.011,0.0045,-0.0237,-0.0152,-0.0337,-0.0504,-0.0509,-0.0389,0,0,0,0,0,0,0.0537,0.0639,0.0688,0.0783,0.085,0.0925,0.0949,0.0939,0.0876,0.0848,0.0698,0.0642,0.037,0.0506,0.011,0.0058,-0.0081,-0.0275,-0.0279,-0.0501,-0.0506,-0.051,-0.0388,0,0,0,0,0]}]]